Time,TemperatureF,DewpointF,PressureIn,WindDirection,WindDirectionDegrees,WindSpeedMPH,WindSpeedGustMPH,Humidity,HourlyPrecipIn,Conditions,Clouds,dailyrainin,SoftwareType,DateUTC
2013-03-06 00:01:00,27.5,10.4,29.91,SSW,196,0.0,0.0,48,0.00,,---,0.00,VWS V14.01,2013-03-06 07:01:00,
2013-03-06 00:06:00,27.3,10.2,29.91,South,187,0.0,0.0,48,0.00,,---,0.00,VWS V14.01,2013-03-06 07:06:00,
2013-03-06 00:11:00,27.3,10.2,29.91,SSW,209,0.0,0.0,48,0.00,,---,0.00,VWS V14.01,2013-03-06 07:11:00,
2013-03-06 00:16:00,27.3,10.2,29.91,SSW,209,0.0,0.0,48,0.00,,---,0.00,VWS V14.01,2013-03-06 07:16:00,
2013-03-06 00:21:00,27.3,10.2,29.91,SSW,211,0.0,0.0,48,0.00,,---,0.00,VWS V14.01,2013-03-06 07:21:00,
2013-03-06 00:26:00,27.3,10.2,29.91,SSW,211,0.0,0.0,48,0.00,,---,0.00,VWS V14.01,2013-03-06 07:26:00,
2013-03-06 00:32:00,27.1,10.1,29.91,SSW,211,0.0,0.0,48,0.00,,---,0.00,VWS V14.01,2013-03-06 07:32:00,
2013-03-06 00:36:00,26.8,9.7,29.91,SSW,211,0.0,0.0,48,0.00,,---,0.00,VWS V14.01,2013-03-06 07:36:00,
2013-03-06 00:42:00,27.0,10.4,29.91,SW,223,0.0,0.0,49,0.00,,---,0.00,VWS V14.01,2013-03-06 07:42:00,
2013-03-06 00:47:00,27.0,9.9,29.91,SW,224,0.0,0.0,48,0.00,,---,0.00,VWS V14.01,2013-03-06 07:47:00,
2013-03-06 00:52:00,27.1,10.5,29.91,SW,226,0.0,0.0,49,0.00,,---,0.00,VWS V14.01,2013-03-06 07:52:00,
2013-03-06 00:57:00,26.8,10.2,29.91,SW,226,0.0,0.0,49,0.00,,---,0.00,VWS V14.01,2013-03-06 07:57:00,
2013-03-06 01:02:00,26.8,10.6,29.91,SSW,213,0.0,0.0,50,0.00,,---,0.00,VWS V14.01,2013-03-06 08:02:00,
2013-03-06 01:07:00,26.8,10.6,29.91,SSW,200,0.0,0.0,50,0.00,,---,0.00,VWS V14.01,2013-03-06 08:07:00,
2013-03-06 01:12:00,26.8,10.6,29.91,SSW,207,0.0,3.6,50,0.00,,---,0.00,VWS V14.01,2013-03-06 08:12:00,
2013-03-06 01:17:00,26.8,10.6,29.91,SSW,207,0.0,0.0,50,0.00,,---,0.00,VWS V14.01,2013-03-06 08:17:00,
2013-03-06 01:22:00,26.4,10.3,29.91,SSW,207,0.0,0.0,50,0.00,,---,0.00,VWS V14.01,2013-03-06 08:22:00,
2013-03-06 01:27:00,26.4,10.8,29.91,SSW,207,0.0,0.0,51,0.00,,---,0.00,VWS V14.01,2013-03-06 08:27:00,
2013-03-06 01:32:00,26.2,10.6,29.91,SW,227,0.0,0.0,51,0.00,,---,0.00,VWS V14.01,2013-03-06 08:32:00,
2013-03-06 01:37:00,26.2,10.6,29.91,SSE,161,2.7,3.1,51,0.00,,---,0.00,VWS V14.01,2013-03-06 08:37:00,
2013-03-06 01:42:00,26.2,10.6,29.91,SSW,198,0.0,3.1,51,0.00,,---,0.00,VWS V14.01,2013-03-06 08:42:00,
2013-03-06 01:47:00,26.2,10.6,29.91,SSW,198,0.0,0.0,51,0.00,,---,0.00,VWS V14.01,2013-03-06 08:47:00,
2013-03-06 01:52:00,26.1,10.4,29.91,SSW,198,0.0,0.0,51,0.00,,---,0.00,VWS V14.01,2013-03-06 08:52:00,
2013-03-06 01:57:00,26.1,10.9,29.91,SSW,198,0.0,0.0,52,0.00,,---,0.00,VWS V14.01,2013-03-06 08:57:00,
2013-03-06 02:02:00,26.1,10.9,29.91,SSW,198,0.0,0.0,52,0.00,,---,0.00,VWS V14.01,2013-03-06 09:02:00,
2013-03-06 02:07:00,26.1,10.9,29.91,SSW,198,0.0,0.0,52,0.00,,---,0.00,VWS V14.01,2013-03-06 09:07:00,
2013-03-06 02:12:00,26.1,10.9,29.91,SSW,198,0.0,0.0,52,0.00,,---,0.00,VWS V14.01,2013-03-06 09:12:00,
2013-03-06 02:17:00,26.2,11.4,29.91,SSW,198,0.0,0.0,53,0.00,,---,0.00,VWS V14.01,2013-03-06 09:17:00,
2013-03-06 02:22:00,26.4,11.2,29.91,SSW,198,0.0,0.0,52,0.00,,---,0.00,VWS V14.01,2013-03-06 09:22:00,
2013-03-06 02:27:00,26.6,11.8,29.88,SSW,198,0.0,0.0,53,0.00,,---,0.00,VWS V14.01,2013-03-06 09:27:00,
2013-03-06 02:32:00,26.8,11.5,29.88,SSW,198,0.0,0.0,52,0.00,,---,0.00,VWS V14.01,2013-03-06 09:32:00,
2013-03-06 02:37:00,27.0,11.7,29.88,SSW,206,0.0,0.0,52,0.00,,---,0.00,VWS V14.01,2013-03-06 09:37:00,
2013-03-06 02:42:00,27.1,11.9,29.88,SSW,206,0.0,0.0,52,0.00,,---,0.00,VWS V14.01,2013-03-06 09:42:00,
2013-03-06 02:47:00,27.1,11.9,29.88,SSW,206,0.0,0.0,52,0.00,,---,0.00,VWS V14.01,2013-03-06 09:47:00,
2013-03-06 02:52:00,27.3,12.0,29.88,SE,131,0.0,0.0,52,0.00,,---,0.00,VWS V14.01,2013-03-06 09:52:00,
2013-03-06 02:57:00,26.8,11.5,29.88,SE,131,0.0,0.0,52,0.00,,---,0.00,VWS V14.01,2013-03-06 09:57:00,
2013-03-06 03:02:00,26.4,11.2,29.88,SE,131,0.0,0.0,52,0.00,,---,0.00,VWS V14.01,2013-03-06 10:02:00,
2013-03-06 03:07:00,26.2,11.0,29.88,SE,131,0.0,0.0,52,0.00,,---,0.00,VWS V14.01,2013-03-06 10:07:00,
2013-03-06 03:12:00,26.2,11.4,29.88,SSE,161,0.0,0.0,53,0.00,,---,0.00,VWS V14.01,2013-03-06 10:12:00,
2013-03-06 03:17:00,26.1,11.3,29.88,SSE,147,0.0,0.0,53,0.00,,---,0.00,VWS V14.01,2013-03-06 10:17:00,
2013-03-06 03:22:00,26.1,11.3,29.88,SSE,147,0.0,0.0,53,0.00,,---,0.00,VWS V14.01,2013-03-06 10:22:00,
2013-03-06 03:27:00,26.1,11.3,29.88,SSE,147,0.0,0.0,53,0.00,,---,0.00,VWS V14.01,2013-03-06 10:27:00,
2013-03-06 03:32:00,25.9,11.1,29.88,SSE,147,0.0,0.0,53,0.00,,---,0.00,VWS V14.01,2013-03-06 10:32:00,
2013-03-06 03:37:00,25.9,11.1,29.88,SSE,147,0.0,0.0,53,0.00,,---,0.00,VWS V14.01,2013-03-06 10:37:00,
2013-03-06 03:42:00,25.9,11.1,29.85,SSE,147,0.0,0.0,53,0.00,,---,0.00,VWS V14.01,2013-03-06 10:42:00,
2013-03-06 03:47:00,25.9,11.1,29.85,SSE,147,0.0,0.0,53,0.00,,---,0.00,VWS V14.01,2013-03-06 10:47:00,
2013-03-06 03:52:00,25.9,11.1,29.85,SSE,147,0.0,0.0,53,0.00,,---,0.00,VWS V14.01,2013-03-06 10:52:00,
2013-03-06 03:57:00,26.1,11.7,29.85,SSE,147,0.0,0.0,54,0.00,,---,0.00,VWS V14.01,2013-03-06 10:57:00,
2013-03-06 04:02:00,26.1,11.7,29.85,SSE,150,3.1,3.1,54,0.00,,---,0.00,VWS V14.01,2013-03-06 11:02:00,
2013-03-06 04:07:00,26.1,11.7,29.85,SSE,148,0.0,3.1,54,0.00,,---,0.00,VWS V14.01,2013-03-06 11:07:00,
2013-03-06 04:12:00,26.1,11.7,29.85,SSE,148,0.0,3.1,54,0.00,,---,0.00,VWS V14.01,2013-03-06 11:12:00,
2013-03-06 04:17:00,26.1,11.7,29.85,SSE,148,0.0,0.0,54,0.00,,---,0.00,VWS V14.01,2013-03-06 11:17:00,
2013-03-06 04:22:00,26.1,11.7,29.85,SSE,148,0.0,0.0,54,0.00,,---,0.00,VWS V14.01,2013-03-06 11:22:00,
2013-03-06 04:27:00,26.1,11.7,29.85,SSE,148,0.0,0.0,54,0.00,,---,0.00,VWS V14.01,2013-03-06 11:27:00,
2013-03-06 04:32:00,26.1,11.7,29.85,SSE,148,0.0,0.0,54,0.00,,---,0.00,VWS V14.01,2013-03-06 11:32:00,
2013-03-06 04:37:00,26.2,11.9,29.85,SSE,148,0.0,0.0,54,0.00,,---,0.00,VWS V14.01,2013-03-06 11:37:00,
2013-03-06 04:42:00,26.4,12.0,29.85,SSE,148,0.0,0.0,54,0.00,,---,0.00,VWS V14.01,2013-03-06 11:42:00,
2013-03-06 04:47:00,26.4,12.0,29.85,SSE,148,0.0,0.0,54,0.00,,---,0.00,VWS V14.01,2013-03-06 11:47:00,
2013-03-06 04:52:00,26.2,11.9,29.85,SSE,148,0.0,0.0,54,0.00,,---,0.00,VWS V14.01,2013-03-06 11:52:00,
2013-03-06 04:57:00,26.1,11.7,29.85,SSE,148,0.0,0.0,54,0.00,,---,0.00,VWS V14.01,2013-03-06 11:57:00,
2013-03-06 05:02:00,26.1,12.1,29.85,SSW,204,0.0,0.0,55,0.00,,---,0.00,VWS V14.01,2013-03-06 12:02:00,
2013-03-06 05:07:00,26.4,12.5,29.85,SSW,204,0.0,0.0,55,0.00,,---,0.00,VWS V14.01,2013-03-06 12:07:00,
2013-03-06 05:12:00,26.8,12.8,29.85,SSW,204,0.0,0.0,55,0.00,,---,0.00,VWS V14.01,2013-03-06 12:12:00,
2013-03-06 05:17:00,27.0,13.0,29.85,SSW,204,0.0,0.0,55,0.00,,---,0.00,VWS V14.01,2013-03-06 12:17:00,
2013-03-06 05:22:00,27.3,12.9,29.85,SSW,204,0.0,0.0,54,0.00,,---,0.00,VWS V14.01,2013-03-06 12:22:00,
2013-03-06 05:27:00,27.5,13.5,29.83,SSW,204,0.0,0.0,55,0.00,,---,0.00,VWS V14.01,2013-03-06 12:27:00,
2013-03-06 05:32:00,28.0,14.0,29.83,SSW,204,0.0,0.0,55,0.00,,---,0.00,VWS V14.01,2013-03-06 12:32:00,
2013-03-06 05:37:00,28.4,14.3,29.83,SSW,204,0.0,0.0,55,0.00,,---,0.00,VWS V14.01,2013-03-06 12:37:00,
2013-03-06 05:42:00,28.2,13.7,29.83,ESE,123,0.0,0.0,54,0.00,,---,0.00,VWS V14.01,2013-03-06 12:42:00,
2013-03-06 05:47:00,28.0,13.6,29.83,ESE,123,0.0,0.0,54,0.00,,---,0.00,VWS V14.01,2013-03-06 12:47:00,
2013-03-06 05:52:00,28.0,14.0,29.83,ESE,123,0.0,0.0,55,0.00,,---,0.00,VWS V14.01,2013-03-06 12:52:00,
2013-03-06 05:57:00,28.0,14.0,29.83,ESE,123,0.0,0.0,55,0.00,,---,0.00,VWS V14.01,2013-03-06 12:57:00,
2013-03-06 06:02:00,28.2,14.1,29.83,ESE,123,0.0,0.0,55,0.00,,---,0.00,VWS V14.01,2013-03-06 13:02:00,
2013-03-06 06:07:00,28.2,14.1,29.83,East,83,0.0,0.0,55,0.00,,---,0.00,VWS V14.01,2013-03-06 13:07:00,
2013-03-06 06:12:00,28.4,14.7,29.83,East,83,0.0,0.0,56,0.00,,---,0.00,VWS V14.01,2013-03-06 13:12:00,
2013-03-06 06:17:00,28.2,14.1,29.83,East,83,0.0,0.0,55,0.00,,---,0.00,VWS V14.01,2013-03-06 13:17:00,
2013-03-06 06:22:00,28.2,14.1,29.83,East,83,0.0,0.0,55,0.00,,---,0.00,VWS V14.01,2013-03-06 13:22:00,
2013-03-06 06:27:00,28.4,14.3,29.83,East,83,0.0,0.0,55,0.00,,---,0.00,VWS V14.01,2013-03-06 13:27:00,
2013-03-06 06:32:00,28.6,14.5,29.83,East,83,0.0,0.0,55,0.00,,---,0.00,VWS V14.01,2013-03-06 13:32:00,
2013-03-06 06:37:00,28.6,14.5,29.83,East,83,0.0,0.0,55,0.00,,---,0.00,VWS V14.01,2013-03-06 13:37:00,
2013-03-06 06:42:00,28.8,14.6,29.80,East,83,0.0,0.0,55,0.00,,---,0.00,VWS V14.01,2013-03-06 13:42:00,
2013-03-06 06:47:00,29.1,15.0,29.80,East,83,0.0,0.0,55,0.00,,---,0.00,VWS V14.01,2013-03-06 13:47:00,
2013-03-06 06:52:00,29.1,15.0,29.80,East,83,0.0,0.0,55,0.00,,---,0.00,VWS V14.01,2013-03-06 13:52:00,
2013-03-06 06:57:00,29.3,15.1,29.80,East,83,0.0,0.0,55,0.00,,---,0.00,VWS V14.01,2013-03-06 13:57:00,
2013-03-06 07:02:00,29.5,15.3,29.80,East,83,0.0,0.0,55,0.00,,---,0.00,VWS V14.01,2013-03-06 14:02:00,
2013-03-06 07:07:00,29.5,15.3,29.80,East,83,0.0,0.0,55,0.00,,---,0.00,VWS V14.01,2013-03-06 14:07:00,
2013-03-06 07:12:00,29.5,15.3,29.80,ENE,73,0.0,0.0,55,0.00,,---,0.00,VWS V14.01,2013-03-06 14:12:00,
2013-03-06 07:17:00,29.5,15.3,29.80,ENE,74,0.0,0.0,55,0.00,,---,0.00,VWS V14.01,2013-03-06 14:17:00,
2013-03-06 07:22:00,29.5,15.3,29.80,ENE,74,0.0,0.0,55,0.00,,---,0.00,VWS V14.01,2013-03-06 14:22:00,
2013-03-06 07:27:00,29.7,15.5,29.80,ENE,74,0.0,0.0,55,0.00,,---,0.00,VWS V14.01,2013-03-06 14:27:00,
2013-03-06 07:32:00,29.7,15.5,29.80,ENE,74,0.0,0.0,55,0.00,,---,0.00,VWS V14.01,2013-03-06 14:32:00,
2013-03-06 07:37:00,29.8,15.7,29.80,SW,234,2.2,4.0,55,0.00,,---,0.00,VWS V14.01,2013-03-06 14:37:00,
2013-03-06 07:42:00,30.0,15.4,29.80,WSW,237,0.0,4.0,54,0.00,,---,0.00,VWS V14.01,2013-03-06 14:42:00,
2013-03-06 07:47:00,30.2,15.6,29.80,WSW,247,0.0,0.0,54,0.00,,---,0.00,VWS V14.01,2013-03-06 14:47:00,
2013-03-06 07:52:00,30.2,15.6,29.80,WSW,254,0.0,3.1,54,0.00,,---,0.00,VWS V14.01,2013-03-06 14:52:00,
2013-03-06 07:57:00,30.6,15.5,29.80,West,278,0.0,3.1,53,0.00,,---,0.00,VWS V14.01,2013-03-06 14:57:00,
2013-03-06 08:02:00,30.9,15.4,29.80,WNW,287,3.1,4.0,52,0.00,,---,0.00,VWS V14.01,2013-03-06 15:02:00,
2013-03-06 08:07:00,31.3,15.7,29.80,WNW,282,0.0,4.0,52,0.00,,---,0.00,VWS V14.01,2013-03-06 15:07:00,
2013-03-06 08:12:00,31.6,15.6,29.80,WNW,289,0.0,4.0,51,0.00,,---,0.00,VWS V14.01,2013-03-06 15:12:00,
2013-03-06 08:17:00,32.2,16.1,29.80,South,183,0.0,0.0,51,0.00,,---,0.00,VWS V14.01,2013-03-06 15:17:00,
2013-03-06 08:22:00,32.5,16.9,29.80,SSE,151,0.0,0.0,52,0.00,,---,0.00,VWS V14.01,2013-03-06 15:22:00,
2013-03-06 08:45:00,33.6,17.4,29.80,SSW,212,0.0,0.0,51,0.00,,---,0.00,VWS V14.01,2013-03-06 15:45:00,
2013-03-06 08:50:00,34.2,17.9,29.80,South,182,0.0,0.0,51,0.00,,---,0.00,VWS V14.01,2013-03-06 15:50:00,
2013-03-06 08:55:00,34.9,18.6,29.80,SSE,164,0.0,0.0,51,0.00,,---,0.00,VWS V14.01,2013-03-06 15:55:00,
2013-03-06 09:00:00,36.0,19.6,29.80,SSE,163,0.0,0.0,51,0.00,,---,0.00,VWS V14.01,2013-03-06 16:00:00,
2013-03-06 09:05:00,37.0,20.6,29.80,East,100,0.0,0.0,51,0.00,,---,0.00,VWS V14.01,2013-03-06 16:05:00,
2013-03-06 09:10:00,37.9,20.5,29.80,ESE,106,0.0,0.0,49,0.00,,---,0.00,VWS V14.01,2013-03-06 16:10:00,
2013-03-06 09:15:00,38.5,21.0,29.80,ESE,106,0.0,0.0,49,0.00,,---,0.00,VWS V14.01,2013-03-06 16:15:00,
2013-03-06 09:20:00,39.2,21.7,29.80,ESE,106,0.0,0.0,49,0.00,,---,0.00,VWS V14.01,2013-03-06 16:20:00,
2013-03-06 09:25:00,39.9,21.3,29.80,ESE,106,0.0,0.0,47,0.00,,---,0.00,VWS V14.01,2013-03-06 16:25:00,
2013-03-06 09:30:00,39.2,16.9,29.80,ESE,106,0.0,0.0,40,0.00,,---,0.00,VWS V14.01,2013-03-06 16:30:00,
2013-03-06 09:35:00,38.8,16.6,29.80,East,93,0.0,0.0,40,0.00,,---,0.00,VWS V14.01,2013-03-06 16:35:00,
2013-03-06 09:40:00,38.7,15.9,29.77,NNE,24,0.0,0.0,39,0.00,,---,0.00,VWS V14.01,2013-03-06 16:40:00,
2013-03-06 09:45:00,38.7,15.3,29.77,NNE,21,0.0,0.0,38,0.00,,---,0.00,VWS V14.01,2013-03-06 16:45:00,
2013-03-06 09:50:00,38.8,15.4,29.77,North,357,0.0,2.7,38,0.00,,---,0.00,VWS V14.01,2013-03-06 16:50:00,
2013-03-06 09:55:00,38.8,14.8,29.77,North,7,3.1,4.0,37,0.00,,---,0.00,VWS V14.01,2013-03-06 16:55:00,
2013-03-06 10:00:00,38.7,15.3,29.77,North,0,2.7,4.0,38,0.00,,---,0.00,VWS V14.01,2013-03-06 17:00:00,
2013-03-06 10:05:00,38.8,15.4,29.77,NNE,16,3.1,5.4,38,0.00,,---,0.00,VWS V14.01,2013-03-06 17:05:00,
2013-03-06 10:10:00,39.0,15.6,29.77,North,357,2.7,5.8,38,0.00,,---,0.00,VWS V14.01,2013-03-06 17:10:00,
2013-03-06 10:15:00,39.2,16.3,29.77,North,2,0.0,0.0,39,0.00,,---,0.00,VWS V14.01,2013-03-06 17:15:00,
2013-03-06 10:20:00,39.7,16.8,29.77,NNE,17,3.1,4.5,39,0.00,,---,0.00,VWS V14.01,2013-03-06 17:20:00,
2013-03-06 10:25:00,39.2,16.3,29.77,North,357,3.1,5.4,39,0.00,,---,0.00,VWS V14.01,2013-03-06 17:25:00,
2013-03-06 10:30:00,39.4,16.5,29.77,NNE,29,0.0,3.6,39,0.00,,---,0.00,VWS V14.01,2013-03-06 17:30:00,
2013-03-06 10:35:00,39.9,17.0,29.77,NE,51,2.2,4.0,39,0.00,,---,0.00,VWS V14.01,2013-03-06 17:35:00,
2013-03-06 10:40:00,39.9,17.0,29.77,ENE,58,2.7,5.8,39,0.00,,---,0.00,VWS V14.01,2013-03-06 17:40:00,
2013-03-06 10:45:00,40.5,16.9,29.77,NNE,19,4.0,4.0,38,0.00,,---,0.00,VWS V14.01,2013-03-06 17:45:00,
2013-03-06 10:51:00,40.6,16.4,29.77,North,7,3.1,5.4,37,0.00,,---,0.00,VWS V14.01,2013-03-06 17:51:00,
2013-03-06 10:56:00,41.9,15.6,29.77,NNE,15,3.6,5.4,34,0.00,,---,0.00,VWS V14.01,2013-03-06 17:56:00,
2013-03-06 11:01:00,43.0,15.2,29.77,North,3,5.4,5.4,32,0.00,,---,0.00,VWS V14.01,2013-03-06 18:01:00,
2013-03-06 11:06:00,42.6,14.8,29.77,NE,36,3.1,5.4,32,0.00,,---,0.00,VWS V14.01,2013-03-06 18:06:00,
2013-03-06 11:11:00,43.7,15.1,29.77,NE,37,3.1,5.4,31,0.00,,---,0.00,VWS V14.01,2013-03-06 18:11:00,
2013-03-06 11:16:00,44.1,15.4,29.77,NNE,18,3.6,5.8,31,0.00,,---,0.00,VWS V14.01,2013-03-06 18:16:00,
2013-03-06 11:21:00,43.5,14.9,29.77,North,3,3.6,5.8,31,0.00,,---,0.00,VWS V14.01,2013-03-06 18:21:00,
2013-03-06 11:26:00,43.7,15.1,29.77,North,2,0.0,5.8,31,0.00,,---,0.00,VWS V14.01,2013-03-06 18:26:00,
2013-03-06 11:31:00,44.4,15.7,29.77,NE,36,2.7,3.6,31,0.00,,---,0.00,VWS V14.01,2013-03-06 18:31:00,
2013-03-06 11:36:00,45.9,17.0,29.77,ENE,70,3.1,3.6,31,0.00,,---,0.00,VWS V14.01,2013-03-06 18:36:00,
2013-03-06 11:41:00,46.2,17.3,29.74,North,353,0.0,3.6,31,0.00,,---,0.00,VWS V14.01,2013-03-06 18:41:00,
2013-03-06 11:46:00,45.3,16.5,29.74,North,357,0.0,0.0,31,0.00,,---,0.00,VWS V14.01,2013-03-06 18:46:00,
2013-03-06 11:51:00,44.8,16.0,29.74,North,3,0.0,4.0,31,0.00,,---,0.00,VWS V14.01,2013-03-06 18:51:00,
2013-03-06 11:56:00,44.1,15.4,29.74,North,8,2.7,4.9,31,0.00,,---,0.00,VWS V14.01,2013-03-06 18:56:00,
2013-03-06 12:01:00,44.4,16.4,29.74,North,8,0.0,0.0,32,0.00,,---,0.00,VWS V14.01,2013-03-06 19:01:00,
2013-03-06 12:06:00,44.6,15.9,29.74,North,2,4.0,4.9,31,0.00,,---,0.00,VWS V14.01,2013-03-06 19:06:00,
2013-03-06 12:11:00,45.3,16.5,29.74,NNW,348,0.0,4.9,31,0.00,,---,0.00,VWS V14.01,2013-03-06 19:11:00,
2013-03-06 12:16:00,45.5,16.6,29.74,North,9,3.1,3.1,31,0.00,,---,0.00,VWS V14.01,2013-03-06 19:16:00,
2013-03-06 12:21:00,45.0,16.2,29.74,North,6,2.2,4.9,31,0.00,,---,0.00,VWS V14.01,2013-03-06 19:21:00,
2013-03-06 12:26:00,45.5,16.6,29.74,North,357,3.6,6.3,31,0.00,,---,0.00,VWS V14.01,2013-03-06 19:26:00,
2013-03-06 12:31:00,45.9,17.7,29.74,North,8,3.1,4.0,32,0.00,,---,0.00,VWS V14.01,2013-03-06 19:31:00,
2013-03-06 12:36:00,46.0,17.9,29.74,North,0,0.0,4.0,32,0.00,,---,0.00,VWS V14.01,2013-03-06 19:36:00,
2013-03-06 12:41:00,45.9,17.0,29.74,North,0,0.0,6.3,31,0.00,,---,0.00,VWS V14.01,2013-03-06 19:41:00,
2013-03-06 12:46:00,45.1,16.3,29.74,North,2,4.0,6.3,31,0.00,,---,0.00,VWS V14.01,2013-03-06 19:46:00,
2013-03-06 12:51:00,45.5,16.6,29.74,North,4,3.1,6.3,31,0.00,,---,0.00,VWS V14.01,2013-03-06 19:51:00,
2013-03-06 12:56:00,45.7,16.8,29.74,North,353,2.7,6.3,31,0.00,,---,0.00,VWS V14.01,2013-03-06 19:56:00,
2013-03-06 13:01:00,45.3,16.5,29.74,NNE,12,3.6,5.8,31,0.00,,---,0.00,VWS V14.01,2013-03-06 20:01:00,
2013-03-06 13:06:00,45.9,17.7,29.74,NNE,28,2.2,5.8,32,0.00,,---,0.00,VWS V14.01,2013-03-06 20:06:00,
2013-03-06 13:11:00,46.4,17.4,29.74,North,3,3.6,5.8,31,0.00,,---,0.00,VWS V14.01,2013-03-06 20:11:00,
2013-03-06 13:16:00,46.4,17.4,29.74,North,0,4.9,5.4,31,0.00,,---,0.00,VWS V14.01,2013-03-06 20:16:00,
2013-03-06 13:21:00,46.4,17.4,29.74,North,357,4.0,6.3,31,0.00,,---,0.00,VWS V14.01,2013-03-06 20:21:00,
2013-03-06 13:26:00,46.6,17.6,29.74,North,0,4.0,6.3,31,0.00,,---,0.00,VWS V14.01,2013-03-06 20:26:00,
2013-03-06 13:31:00,46.2,18.0,29.74,NNW,339,0.0,0.0,32,0.00,,---,0.00,VWS V14.01,2013-03-06 20:31:00,
2013-03-06 13:36:00,45.9,17.7,29.74,NNE,12,0.0,0.0,32,0.00,,---,0.00,VWS V14.01,2013-03-06 20:36:00,
2013-03-06 13:41:00,45.5,17.4,29.74,NNE,16,0.0,0.0,32,0.00,,---,0.00,VWS V14.01,2013-03-06 20:41:00,
2013-03-06 13:46:00,45.3,17.2,29.74,East,81,0.0,3.6,32,0.00,,---,0.00,VWS V14.01,2013-03-06 20:46:00,
2013-03-06 13:51:00,45.3,17.9,29.74,SE,125,3.1,4.5,33,0.00,,---,0.00,VWS V14.01,2013-03-06 20:51:00,
2013-03-06 13:56:00,45.1,17.8,29.74,ESE,117,3.6,4.5,33,0.00,,---,0.00,VWS V14.01,2013-03-06 20:56:00,
2013-03-06 14:01:00,45.0,17.6,29.74,SSE,150,0.0,0.0,33,0.00,,---,0.00,VWS V14.01,2013-03-06 21:01:00,
2013-03-06 14:06:00,44.8,17.5,29.74,ESE,123,0.0,0.0,33,0.00,,---,0.00,VWS V14.01,2013-03-06 21:06:00,
2013-03-06 14:11:00,44.6,17.3,29.74,East,95,2.7,3.1,33,0.00,,---,0.00,VWS V14.01,2013-03-06 21:11:00,
2013-03-06 14:16:00,44.2,17.0,29.74,East,95,0.0,0.0,33,0.00,,---,0.00,VWS V14.01,2013-03-06 21:16:00,
2013-03-06 14:21:00,43.7,16.5,29.74,East,84,2.7,2.7,33,0.00,,---,0.00,VWS V14.01,2013-03-06 21:21:00,
2013-03-06 14:26:00,42.6,17.5,29.77,East,79,0.0,3.6,36,0.00,,---,0.00,VWS V14.01,2013-03-06 21:26:00,
2013-03-06 14:31:00,40.8,16.6,29.77,SE,135,0.0,0.0,37,0.00,,---,0.00,VWS V14.01,2013-03-06 21:31:00,
2013-03-06 14:36:00,39.9,17.0,29.77,South,177,3.6,4.0,39,0.00,,---,0.00,VWS V14.01,2013-03-06 21:36:00,
2013-03-06 14:41:00,39.7,16.8,29.74,SSE,155,0.0,4.0,39,0.00,,---,0.00,VWS V14.01,2013-03-06 21:41:00,
2013-03-06 14:46:00,39.6,17.2,29.74,SSW,195,0.0,0.0,40,0.00,,---,0.00,VWS V14.01,2013-03-06 21:46:00,
2013-03-06 14:51:00,40.1,17.7,29.74,SSW,195,0.0,0.0,40,0.00,,---,0.00,VWS V14.01,2013-03-06 21:51:00,
2013-03-06 14:56:00,40.6,19.4,29.74,SSW,195,0.0,0.0,42,0.00,,---,0.00,VWS V14.01,2013-03-06 21:56:00,
2013-03-06 15:01:00,41.0,20.2,29.74,SSW,198,0.0,0.0,43,0.00,,---,0.00,VWS V14.01,2013-03-06 22:01:00,
2013-03-06 15:06:00,41.9,21.0,29.74,SSW,198,0.0,0.0,43,0.00,,---,0.00,VWS V14.01,2013-03-06 22:06:00,
2013-03-06 15:11:00,42.8,21.9,29.74,SSW,198,0.0,0.0,43,0.00,,---,0.00,VWS V14.01,2013-03-06 22:11:00,
2013-03-06 15:16:00,43.7,22.1,29.74,SSW,198,0.0,0.0,42,0.00,,---,0.00,VWS V14.01,2013-03-06 22:16:00,
2013-03-06 15:21:00,44.4,22.2,29.74,SSW,198,0.0,0.0,41,0.00,,---,0.00,VWS V14.01,2013-03-06 22:21:00,
2013-03-06 15:26:00,44.6,22.4,29.74,SSW,198,0.0,0.0,41,0.00,,---,0.00,VWS V14.01,2013-03-06 22:26:00,
2013-03-06 15:31:00,45.1,22.9,29.74,SSW,198,0.0,0.0,41,0.00,,---,0.00,VWS V14.01,2013-03-06 22:31:00,
2013-03-06 15:36:00,45.3,22.4,29.74,SSW,198,0.0,0.0,40,0.00,,---,0.00,VWS V14.01,2013-03-06 22:36:00,
2013-03-06 15:41:00,46.2,23.2,29.74,SSW,198,0.0,0.0,40,0.00,,---,0.00,VWS V14.01,2013-03-06 22:41:00,
2013-03-06 15:46:00,49.3,26.0,29.74,South,176,2.2,3.1,40,0.00,,---,0.00,VWS V14.01,2013-03-06 22:46:00,
2013-03-06 15:51:00,51.1,25.7,29.74,SE,133,3.6,3.6,37,0.00,,---,0.00,VWS V14.01,2013-03-06 22:51:00,
2013-03-06 15:56:00,51.3,25.9,29.74,East,100,0.0,3.6,37,0.00,,---,0.00,VWS V14.01,2013-03-06 22:56:00,
2013-03-06 16:01:00,52.3,26.9,29.74,East,95,0.0,0.0,37,0.00,,---,0.00,VWS V14.01,2013-03-06 23:01:00,
2013-03-06 16:06:00,52.2,26.0,29.74,SSE,167,4.0,5.4,36,0.00,,---,0.00,VWS V14.01,2013-03-06 23:06:00,
2013-03-06 16:11:00,50.2,24.3,29.74,SSE,163,3.1,5.4,36,0.00,,---,0.00,VWS V14.01,2013-03-06 23:11:00,
2013-03-06 16:16:00,47.5,22.5,29.74,SSE,152,2.2,3.6,37,0.00,,---,0.00,VWS V14.01,2013-03-06 23:16:00,
2013-03-06 16:21:00,45.7,21.5,29.74,SE,134,4.9,4.9,38,0.00,,---,0.00,VWS V14.01,2013-03-06 23:21:00,
2013-03-06 16:26:00,44.8,20.7,29.74,SSE,161,2.7,6.3,38,0.00,,---,0.00,VWS V14.01,2013-03-06 23:26:00,
2013-03-06 16:31:00,44.6,20.6,29.74,South,169,3.1,3.6,38,0.00,,---,0.00,VWS V14.01,2013-03-06 23:31:00,
2013-03-06 16:36:00,44.6,21.2,29.74,SE,139,5.4,7.6,39,0.00,,---,0.00,VWS V14.01,2013-03-06 23:36:00,
2013-03-06 16:41:00,44.4,21.0,29.77,SSE,168,16.3,17.4,39,0.00,,---,0.00,VWS V14.01,2013-03-06 23:41:00,
2013-03-06 16:46:00,43.7,21.0,29.77,SSW,204,8.7,19.2,40,0.00,,---,0.00,VWS V14.01,2013-03-06 23:46:00,
2013-03-06 16:51:00,42.3,21.9,29.77,SSE,161,8.7,19.2,44,0.00,,---,0.00,VWS V14.01,2013-03-06 23:51:00,
2013-03-06 16:56:00,41.5,22.3,29.77,SSE,161,4.9,19.2,46,0.00,,---,0.00,VWS V14.01,2013-03-06 23:56:00,
2013-03-06 17:01:00,40.8,21.7,29.77,SSE,160,2.2,2.7,46,0.00,,---,0.00,VWS V14.01,2013-03-07 00:01:00,
2013-03-06 17:06:00,40.5,21.8,29.77,SSE,150,3.6,6.3,47,0.00,,---,0.00,VWS V14.01,2013-03-07 00:06:00,
2013-03-06 17:11:00,40.1,22.5,29.77,ESE,105,3.6,6.3,49,0.00,,---,0.00,VWS V14.01,2013-03-07 00:11:00,
2013-03-06 17:16:00,39.9,22.3,29.77,SE,134,5.8,5.8,49,0.00,,---,0.00,VWS V14.01,2013-03-07 00:16:00,
2013-03-06 17:21:00,39.6,22.5,29.77,South,172,4.0,5.8,50,0.00,,---,0.00,VWS V14.01,2013-03-07 00:21:00,
2013-03-06 17:26:00,39.2,22.1,29.77,SE,133,0.0,5.8,50,0.00,,---,0.00,VWS V14.01,2013-03-07 00:26:00,
2013-03-06 17:31:00,38.8,22.3,29.77,SE,133,0.0,0.0,51,0.00,,---,0.00,VWS V14.01,2013-03-07 00:31:00,
2013-03-06 17:36:00,38.7,22.1,29.77,SE,133,0.0,0.0,51,0.00,,---,0.00,VWS V14.01,2013-03-07 00:36:00,
2013-03-06 17:41:00,38.5,22.4,29.77,South,190,2.7,3.1,52,0.00,,---,0.00,VWS V14.01,2013-03-07 00:41:00,
2013-03-06 17:46:00,38.3,22.2,29.77,SE,145,3.6,4.9,52,0.00,,---,0.00,VWS V14.01,2013-03-07 00:46:00,
2013-03-06 17:51:00,38.1,22.5,29.77,SSW,206,3.6,5.4,53,0.00,,---,0.00,VWS V14.01,2013-03-07 00:51:00,
2013-03-06 17:56:00,37.8,22.6,29.77,SSW,196,3.1,5.4,54,0.00,,---,0.00,VWS V14.01,2013-03-07 00:56:00,
2013-03-06 18:01:00,37.4,22.7,29.77,South,174,2.2,4.9,55,0.00,,---,0.00,VWS V14.01,2013-03-07 01:01:00,
2013-03-06 18:06:00,37.2,23.0,29.77,SSE,165,3.1,5.8,56,0.00,,---,0.00,VWS V14.01,2013-03-07 01:06:00,
2013-03-06 18:11:00,37.0,22.8,29.77,South,185,0.0,5.8,56,0.00,,---,0.00,VWS V14.01,2013-03-07 01:11:00,
2013-03-06 18:16:00,36.9,22.6,29.77,SSE,147,3.1,3.1,56,0.00,,---,0.00,VWS V14.01,2013-03-07 01:16:00,
2013-03-06 18:21:00,36.9,23.1,29.77,SW,234,2.2,5.4,57,0.00,,---,0.00,VWS V14.01,2013-03-07 01:21:00,
2013-03-06 18:26:00,36.7,22.5,29.77,SW,226,0.0,5.4,56,0.00,,---,0.00,VWS V14.01,2013-03-07 01:26:00,
2013-03-06 18:31:00,36.3,22.1,29.77,SW,226,0.0,0.0,56,0.00,,---,0.00,VWS V14.01,2013-03-07 01:31:00,
2013-03-06 18:36:00,36.0,21.8,29.77,South,181,0.0,0.0,56,0.00,,---,0.00,VWS V14.01,2013-03-07 01:36:00,
2013-03-06 18:41:00,35.6,21.5,29.77,SE,144,0.0,0.0,56,0.00,,---,0.00,VWS V14.01,2013-03-07 01:41:00,
2013-03-06 18:46:00,35.2,21.1,29.77,SSW,211,0.0,0.0,56,0.00,,---,0.00,VWS V14.01,2013-03-07 01:46:00,
2013-03-06 18:51:00,35.1,21.4,29.77,SSW,211,0.0,0.0,57,0.00,,---,0.00,VWS V14.01,2013-03-07 01:51:00,
2013-03-06 18:56:00,35.4,22.1,29.77,South,182,0.0,0.0,58,0.00,,---,0.00,VWS V14.01,2013-03-07 01:56:00,
2013-03-06 19:01:00,35.6,22.3,29.77,South,182,0.0,0.0,58,0.00,,---,0.00,VWS V14.01,2013-03-07 02:01:00,
2013-03-06 19:06:00,35.8,22.5,29.77,South,185,0.0,0.0,58,0.00,,---,0.00,VWS V14.01,2013-03-07 02:06:00,
2013-03-06 19:11:00,35.6,22.3,29.80,SE,145,0.0,0.0,58,0.00,,---,0.00,VWS V14.01,2013-03-07 02:11:00,
2013-03-06 19:16:00,35.6,22.3,29.80,SE,131,0.0,3.6,58,0.00,,---,0.00,VWS V14.01,2013-03-07 02:16:00,
2013-03-06 19:21:00,35.4,22.1,29.80,SE,131,0.0,3.6,58,0.00,,---,0.00,VWS V14.01,2013-03-07 02:21:00,
2013-03-06 19:26:00,34.9,22.0,29.77,SSW,194,0.0,5.4,59,0.00,,---,0.00,VWS V14.01,2013-03-07 02:26:00,
2013-03-06 19:31:00,34.5,21.7,29.77,SSW,194,0.0,0.0,59,0.00,,---,0.00,VWS V14.01,2013-03-07 02:31:00,
2013-03-06 19:36:00,34.3,21.5,29.77,SSE,157,0.0,0.0,59,0.00,,---,0.00,VWS V14.01,2013-03-07 02:36:00,
2013-03-06 19:41:00,34.3,21.9,29.80,South,190,3.1,3.6,60,0.00,,---,0.00,VWS V14.01,2013-03-07 02:41:00,
2013-03-06 19:46:00,34.5,22.1,29.80,SSW,197,0.0,0.0,60,0.00,,---,0.00,VWS V14.01,2013-03-07 02:46:00,
2013-03-06 19:51:00,34.5,22.5,29.80,SW,217,0.0,0.0,61,0.00,,---,0.00,VWS V14.01,2013-03-07 02:51:00,
2013-03-06 19:56:00,34.5,22.1,29.80,SSW,198,0.0,2.7,60,0.00,,---,0.00,VWS V14.01,2013-03-07 02:56:00,
2013-03-06 20:01:00,34.5,22.5,29.80,SE,134,0.0,0.0,61,0.00,,---,0.00,VWS V14.01,2013-03-07 03:01:00,
2013-03-06 20:06:00,34.3,22.7,29.80,ESE,115,0.0,0.0,62,0.00,,---,0.00,VWS V14.01,2013-03-07 03:06:00,
2013-03-06 20:11:00,34.0,22.4,29.80,ESE,115,0.0,0.0,62,0.00,,---,0.00,VWS V14.01,2013-03-07 03:11:00,
2013-03-06 20:16:00,34.0,22.7,29.80,ESE,115,0.0,0.0,63,0.00,,---,0.00,VWS V14.01,2013-03-07 03:16:00,
2013-03-06 20:21:00,33.6,22.4,29.80,ESE,115,0.0,0.0,63,0.00,,---,0.00,VWS V14.01,2013-03-07 03:21:00,
2013-03-06 20:26:00,33.4,22.2,29.80,ESE,115,0.0,0.0,63,0.00,,---,0.00,VWS V14.01,2013-03-07 03:26:00,
2013-03-06 20:31:00,33.4,22.6,29.80,ESE,115,0.0,0.0,64,0.00,,---,0.00,VWS V14.01,2013-03-07 03:31:00,
2013-03-06 20:36:00,33.3,22.4,29.80,ESE,115,0.0,0.0,64,0.00,,---,0.00,VWS V14.01,2013-03-07 03:36:00,
2013-03-06 20:41:00,33.1,22.2,29.80,ESE,115,0.0,0.0,64,0.00,,---,0.00,VWS V14.01,2013-03-07 03:41:00,
2013-03-06 20:46:00,32.7,21.9,29.80,ESE,115,0.0,0.0,64,0.00,,---,0.00,VWS V14.01,2013-03-07 03:46:00,
2013-03-06 20:51:00,32.5,21.7,29.80,SSW,208,0.0,0.0,64,0.00,,---,0.00,VWS V14.01,2013-03-07 03:51:00,
2013-03-06 20:56:00,32.4,21.6,29.80,SSW,207,0.0,0.0,64,0.00,,---,0.00,VWS V14.01,2013-03-07 03:56:00,
2013-03-06 21:01:00,32.2,21.4,29.80,SW,230,0.0,2.7,64,0.00,,---,0.00,VWS V14.01,2013-03-07 04:01:00,
2013-03-06 21:06:00,32.2,21.4,29.80,WSW,249,0.0,3.1,64,0.00,,---,0.00,VWS V14.01,2013-03-07 04:06:00,
2013-03-06 21:11:00,32.5,22.1,29.80,SW,230,0.0,3.6,65,0.00,,---,0.00,VWS V14.01,2013-03-07 04:11:00,
2013-03-06 21:16:00,32.5,22.1,29.80,WSW,238,0.0,0.0,65,0.00,,---,0.00,VWS V14.01,2013-03-07 04:16:00,
2013-03-06 21:21:00,32.2,21.8,29.80,WSW,238,0.0,0.0,65,0.00,,---,0.00,VWS V14.01,2013-03-07 04:21:00,
2013-03-06 21:26:00,32.2,22.1,29.80,West,267,0.0,0.0,66,0.00,,---,0.00,VWS V14.01,2013-03-07 04:26:00,
2013-03-06 21:31:00,32.2,22.5,29.80,West,267,0.0,0.0,67,0.00,,---,0.00,VWS V14.01,2013-03-07 04:31:00,
2013-03-06 21:36:00,32.2,22.5,29.80,WNW,293,0.0,0.0,67,0.00,,---,0.00,VWS V14.01,2013-03-07 04:36:00,
2013-03-06 21:41:00,32.4,23.0,29.80,West,271,0.0,0.0,68,0.00,,---,0.00,VWS V14.01,2013-03-07 04:41:00,
2013-03-06 21:46:00,32.2,22.8,29.80,South,186,3.6,3.6,68,0.00,,---,0.00,VWS V14.01,2013-03-07 04:46:00,
2013-03-06 21:51:00,32.2,22.8,29.80,WNW,298,0.0,3.6,68,0.00,,---,0.00,VWS V14.01,2013-03-07 04:51:00,
2013-03-06 21:56:00,31.8,22.1,29.83,WNW,298,0.0,3.6,67,0.00,,---,0.00,VWS V14.01,2013-03-07 04:56:00,
2013-03-06 22:00:00,31.5,21.8,29.83,WSW,241,0.0,3.6,67,0.00,,---,0.00,VWS V14.01,2013-03-07 05:00:00,
2013-03-06 22:05:00,31.3,21.6,29.83,WSW,251,0.0,4.0,67,0.00,,---,0.00,VWS V14.01,2013-03-07 05:05:00,
2013-03-06 22:10:00,31.3,21.6,29.83,WSW,247,0.0,4.0,67,0.00,,---,0.00,VWS V14.01,2013-03-07 05:10:00,
2013-03-06 22:15:00,31.1,21.4,29.83,WSW,248,0.0,0.0,67,0.00,,---,0.00,VWS V14.01,2013-03-07 05:15:00,
2013-03-06 22:20:00,30.7,21.1,29.83,WSW,248,0.0,0.0,67,0.00,,---,0.00,VWS V14.01,2013-03-07 05:20:00,
2013-03-06 22:25:00,30.7,21.1,29.83,WSW,248,0.0,0.0,67,0.00,,---,0.00,VWS V14.01,2013-03-07 05:25:00,
2013-03-06 22:30:00,30.7,21.4,29.83,WSW,248,0.0,0.0,68,0.00,,---,0.00,VWS V14.01,2013-03-07 05:30:00,
2013-03-06 22:35:00,31.1,21.8,29.83,SW,232,0.0,3.1,68,0.00,,---,0.00,VWS V14.01,2013-03-07 05:35:00,
2013-03-06 22:40:00,31.6,22.3,29.83,WSW,251,0.0,3.1,68,0.00,,---,0.00,VWS V14.01,2013-03-07 05:40:00,
2013-03-06 22:45:00,31.5,22.1,29.83,WSW,255,0.0,0.0,68,0.00,,---,0.00,VWS V14.01,2013-03-07 05:45:00,
2013-03-06 22:50:00,31.6,22.3,29.83,WSW,255,0.0,0.0,68,0.00,,---,0.00,VWS V14.01,2013-03-07 05:50:00,
2013-03-06 22:55:00,32.0,22.6,29.85,SW,227,0.0,3.6,68,0.00,,---,0.00,VWS V14.01,2013-03-07 05:55:00,
2013-03-06 23:00:00,32.7,23.7,29.85,SSW,206,3.6,3.6,69,0.00,,---,0.00,VWS V14.01,2013-03-07 06:00:00,
2013-03-06 23:05:00,33.4,24.4,29.85,South,183,3.1,4.0,69,0.00,,---,0.00,VWS V14.01,2013-03-07 06:05:00,
2013-03-06 23:10:00,33.8,24.4,29.85,SW,233,3.6,4.0,68,0.00,,---,0.00,VWS V14.01,2013-03-07 06:10:00,
2013-03-06 23:15:00,34.0,24.5,29.85,SSW,198,3.6,3.6,68,0.00,,---,0.00,VWS V14.01,2013-03-07 06:15:00,
2013-03-06 23:20:00,34.3,24.9,29.85,SSW,199,3.6,6.7,68,0.00,,---,0.00,VWS V14.01,2013-03-07 06:20:00,
2013-03-06 23:25:00,34.5,24.7,29.85,SSW,198,4.9,6.7,67,0.00,,---,0.00,VWS V14.01,2013-03-07 06:25:00,
2013-03-06 23:30:00,35.2,25.0,29.85,SW,215,5.8,7.6,66,0.00,,---,0.00,VWS V14.01,2013-03-07 06:30:00,
2013-03-06 23:35:00,35.8,24.0,29.85,SE,138,5.8,8.1,62,0.00,,---,0.00,VWS V14.01,2013-03-07 06:35:00,
2013-03-06 23:40:00,36.0,23.8,29.85,South,184,6.3,8.1,61,0.00,,---,0.00,VWS V14.01,2013-03-07 06:40:00,
2013-03-06 23:45:00,36.1,23.2,29.85,SSW,205,6.7,6.7,59,0.00,,---,0.00,VWS V14.01,2013-03-07 06:45:00,
2013-03-06 23:50:00,36.3,21.7,29.85,SSE,167,6.3,11.0,55,0.00,,---,0.00,VWS V14.01,2013-03-07 06:50:00,
2013-03-06 23:55:00,36.5,21.5,29.85,South,172,6.3,11.0,54,0.00,,---,0.00,VWS V14.01,2013-03-07 06:55:00,